Temp
-15 -16 -15 -15 -15 -15 -15 -15 -15 -15 -16 -17 -17 -17 -17 -17 -17 -17 -17 -17 -18 -18 -18 -18 -18 -18 -18 -19 -19 -19 -21 -22 -22 -22 -22 -22 -22 -22 -22 -21 -19 -19 -19
-16 -16 -16 -16 -15 -16 -15 -15 -15 -15 -16 -17 -17 -17 -17 -17 -17 -17 -17 -18 -18 -18 -18 -18 -18 -18 -19 -19 -19 -20 -21 -22 -22 -23 -23 -22 -22 -22 -22 -22 -21 -20 -19
-16 -16 -16 -16 -16 -16 -15 -15 -15 -16 -17 -17 -17 -18 -18 -17 -18 -18 -18 -18 -18 -18 -18 -18 -18 -19 -19 -19 -20 -20 -21 -22 -23 -22 -23 -23 -23 -23 -23 -22 -22 -21 -20
-16 -16 -16 -16 -16 -16 -15 -16 -16 -16 -17 -17 -17 -18 -18 -18 -18 -18 -18 -18 -18 -18 -18 -18 -18 -19 -19 -19 -20 -20 -21 -22 -23 -22 -23 -24 -24 -24 -23 -23 -22 -22 -21
-16 -16 -16 -16 -16 -16 -16 -16 -16 -16 -17 -17 -17 -18 -18 -18 -18 -18 -18 -18 -18 -18 -18 -18 -18 -19 -19 -19 -19 -20 -21 -22 -23 -23 -23 -24 -24 -24 -24 -24 -23 -23 -22
-16 -16 -16 -16 -16 -16 -16 -16 -16 -17 -17 -17 -17 -17 -17 -17 -18 -18 -18 -18 -18 -18 -19 -19 -19 -19 -19 -20 -20 -19 -20 -21 -22 -23 -24 -24 -25 -24 -24 -24 -24 -23 -23
-16 -17 -17 -16 -16 -16 -16 -16 -16 -17 -17 -17 -17 -17 -17 -17 -18 -18 -18 -18 -19 -19 -19 -19 -19 -19 -20 -20 -20 -20 -20 -21 -21 -22 -23 -24 -25 -25 -25 -25 -24 -24 -23
-17 -17 -17 -17 -16 -16 -16 -16 -16 -16 -17 -17 -17 -17 -17 -17 -17 -18 -18 -18 -19 -19 -19 -20 -20 -20 -20 -20 -20 -20 -20 -20 -21 -22 -22 -24 -25 -26 -25 -25 -24 -24 -23
-17 -17 -17 -17 -17 -16 -16 -16 -16 -16 -17 -17 -17 -17 -17 -17 -18 -18 -18 -18 -19 -19 -19 -20 -20 -20 -20 -20 -20 -20 -20 -20 -20 -21 -22 -22 -24 -25 -25 -25 -24 -23 -23
-17 -17 -17 -17 -17 -17 -16 -16 -16 -16 -17 -17 -17 -17 -17 -18 -18 -18 -18 -19 -19 -19 -19 -19 -20 -20 -20 -20 -20 -20 -20 -20 -21 -20 -21 -21 -22 -23 -23 -24 -24 -23 -23
-17 -17 -17 -17 -17 -17 -17 -17 -17 -17 -17 -17 -17 -18 -18 -18 -18 -18 -18 -19 -19 -19 -19 -20 -20 -20 -20 -20 -21 -21 -21 -20 -20 -21 -21 -21 -21 -22 -22 -23 -23 -23 -23
-17 -17 -17 -17 -17 -17 -17 -17 -17 -17 -17 -17 -18 -18 -18 -18 -18 -18 -19 -19 -19 -19 -20 -20 -20 -20 -20 -20 -20 -21 -21 -21 -21 -21 -21 -21 -21 -21 -21 -22 -22 -22 -22
-18 -18 -17 -17 -18 -18 -17 -17 -17 -17 -17 -18 -18 -18 -18 -18 -19 -19 -19 -19 -19 -20 -20 -20 -20 -20 -20 -20 -20 -20 -21 -21 -21 -21 -21 -21 -21 -21 -21 -21 -21 -21 -22
-18 -18 -18 -18 -18 -18 -18 -17 -17 -18 -18 -18 -18 -18 -18 -19 -19 -19 -19 -19 -20 -20 -20 -20 -20 -20 -20 -20 -20 -20 -20 -20 -21 -21 -21 -21 -21 -21 -21 -21 -21 -21 -21
-19 -19 -19 -18 -18 -18 -18 -18 -18 -18 -18 -18 -18 -18 -18 -19 -19 -19 -19 -19 -19 -20 -20 -20 -20 -20 -20 -20 -20 -20 -20 -20 -21 -21 -21 -21 -21 -21 -21 -21 -21 -21 -22
-19 -19 -19 -19 -19 -19 -18 -18 -18 -18 -18 -18 -18 -18 -19 -19 -19 -19 -19 -20 -20 -20 -20 -20 -20 -20 -20 -20 -20 -20 -20 -20 -20 -21 -21 -22 -22 -21 -21 -22 -22 -21 -22
-19 -19 -19 -19 -19 -19 -19 -19 -19 -19 -19 -19 -19 -19 -19 -19 -19 -20 -20 -21 -20 -21 -20 -20 -20 -20 -20 -21 -21 -21 -21 -21 -21 -21 -21 -21 -22 -22 -22 -22 -22 -22 -22
-20 -20 -20 -20 -19 -20 -19 -19 -19 -19 -19 -19 -19 -19 -19 -19 -19 -20 -20 -20 -20 -20 -21 -21 -21 -21 -21 -22 -22 -22 -22 -22 -21 -21 -21 -22 -22 -22 -22 -22 -22 -22 -22
-20 -20 -20 -20 -20 -20 -20 -20 -20 -20 -20 -19 -19 -19 -19 -19 -19 -20 -20 -21 -21 -21 -21 -21 -22 -22 -22 -22 -22 -22 -22 -22 -22 -22 -22 -22 -22 -22 -23 -23 -23 -23 -23
-21 -21 -21 -21 -20 -20 -20 -20 -20 -20 -20 -20 -20 -20 -20 -20 -20 -20 -20 -21 -21 -21 -21 -21 -21 -21 -22 -22 -22 -22 -22 -23 -22 -23 -23 -23 -23 -23 -23 -23 -23 -23 -23
-22 -21 -21 -21 -20 -20 -20 -20 -20 -20 -20 -20 -20 -20 -20 -20 -21 -21 -21 -21 -21 -22 -22 -22 -22 -22 -23 -23 -23 -23 -23 -23 -23 -24 -24 -24 -23 -24 -24 -24 -24 -24 -24
-21 -21 -21 -21 -20 -20 -20 -20 -20 -20 -21 -21 -21 -21 -21 -21 -21 -21 -21 -21 -22 -22 -22 -22 -22 -23 -23 -24 -23 -23 -24 -24 -24 -23 -24 -24 -24 -24 -24 -24 -24 -25 -25
-21 -21 -21 -21 -21 -21 -20 -21 -21 -21 -21 -21 -21 -21 -21 -21 -21 -21 -21 -22 -22 -23 -23 -23 -23 -23 -23 -24 -24 -24 -25 -25 -25 -25 -25 -25 -25 -24 -24 -24 -25 -25 -25
-21 -21 -21 -21 -21 -21 -21 -21 -21 -21 -21 -21 -21 -21 -22 -22 -22 -22 -23 -23 -23 -23 -23 -24 -24 -25 -25 -25 -25 -25 -25 -25 -25 -25 -25 -25 -25 -25 -25 -25 -25 -25 -25
-21 -21 -21 -21 -21 -21 -21 -21 -21 -22 -22 -22 -22 -22 -22 -23 -23 -23 -23 -24 -24 -24 -24 -24 -24 -25 -25 -25 -25 -25 -25 -25 -25 -25 -25 -25 -25 -25 -25 -25 -25 -25 -25
-22 -22 -22 -22 -22 -22 -22 -22 -22 -22 -23 -23 -23 -23 -23 -23 -24 -24 -24 -24 -25 -25 -25 -25 -25 -25 -25 -25 -25 -25 -25 -25 -25 -26 -26 -26 -26 -26 -26 -26 -26 -26 -26
Height
5658 5659 5658 5658 5657 5656 5654 5651 5645 5638 5629 5622 5616 5611 5606 5602 5596 5591 5584 5577 5571 5565 5559 5551 5543 5535 5526 5518 5507 5495 5477 5465 5459 5455 5449 5448 5448 5448 5450 5455 5465 5474 5483
5649 5650 5650 5650 5650 5648 5647 5644 5639 5632 5623 5617 5611 5607 5602 5598 5592 5587 5580 5574 5568 5562 5554 5545 5536 5528 5520 5511 5499 5486 5467 5455 5445 5438 5432 5431 5430 5431 5435 5439 5447 5456 5465
5640 5641 5642 5642 5643 5641 5640 5637 5632 5626 5620 5614 5608 5604 5599 5594 5589 5585 5579 5573 5567 5560 5551 5543 5534 5524 5515 5505 5494 5480 5464 5449 5438 5428 5421 5414 5413 5413 5419 5424 5433 5443 5450
5631 5632 5634 5635 5635 5635 5633 5631 5627 5622 5617 5613 5608 5603 5598 5594 5589 5584 5579 5573 5565 5558 5551 5542 5534 5524 5514 5502 5489 5477 5462 5447 5432 5421 5411 5402 5398 5400 5405 5411 5418 5428 5436
5622 5624 5625 5627 5628 5627 5625 5624 5621 5617 5613 5610 5606 5601 5596 5592 5587 5582 5577 5571 5564 5557 5549 5541 5532 5523 5512 5501 5488 5475 5462 5448 5432 5419 5406 5394 5390 5390 5394 5400 5408 5416 5427
5613 5615 5617 5618 5619 5619 5618 5618 5615 5612 5609 5606 5603 5598 5593 5589 5584 5580 5574 5568 5562 5555 5547 5540 5531 5522 5511 5501 5489 5476 5463 5450 5436 5422 5408 5396 5389 5388 5391 5397 5403 5409 5421
5604 5606 5608 5610 5611 5610 5610 5610 5608 5606 5603 5601 5597 5593 5589 5585 5580 5575 5570 5564 5558 5552 5545 5538 5529 5521 5511 5501 5491 5479 5465 5452 5440 5427 5415 5403 5395 5392 5392 5397 5404 5410 5416
5595 5597 5599 5601 5601 5601 5602 5601 5600 5599 5597 5595 5592 5588 5584 5579 5575 5570 5565 5560 5554 5549 5543 5536 5528 5520 5512 5503 5493 5483 5471 5458 5445 5435 5424 5414 5406 5401 5400 5402 5406 5412 5416
5586 5587 5589 5591 5592 5592 5593 5593 5592 5591 5589 5588 5585 5581 5578 5574 5569 5565 5560 5555 5550 5545 5539 5533 5526 5519 5511 5503 5495 5485 5476 5465 5453 5442 5432 5425 5418 5412 5410 5408 5410 5413 5417
5575 5577 5580 5581 5582 5582 5583 5583 5583 5582 5581 5579 5577 5574 5570 5567 5563 5559 5555 5550 5545 5540 5535 5529 5523 5517 5510 5502 5495 5488 5480 5471 5462 5451 5441 5434 5429 5424 5419 5416 5415 5414 5417
5565 5568 5568 5570 5571 5572 5573 5573 5574 5573 5572 5570 5568 5565 5562 5559 5555 5552 5548 5544 5539 5535 5530 5524 5519 5513 5508 5501 5494 5488 5481 5474 5467 5459 5452 5444 5436 5432 5429 5425 5422 5421 5422
5556 5557 5558 5560 5560 5562 5563 5563 5564 5563 5562 5561 5559 5556 5553 5550 5547 5544 5540 5536 5532 5529 5524 5519 5514 5509 5504 5499 5493 5487 5481 5475 5469 5463 5457 5451 5445 5439 5434 5431 5429 5427 5426
5546 5547 5547 5549 5550 5551 5553 5553 5553 5552 5552 5551 5549 5547 5544 5542 5538 5535 5532 5529 5525 5520 5516 5512 5508 5503 5499 5494 5489 5484 5479 5474 5469 5464 5459 5455 5450 5445 5441 5437 5433 5431 5430
5534 5536 5537 5540 5540 5540 5541 5542 5542 5541 5541 5539 5538 5536 5535 5532 5529 5525 5522 5519 5516 5512 5508 5504 5500 5496 5492 5488 5483 5479 5475 5470 5466 5462 5459 5455 5452 5448 5445 5442 5438 5435 5432
5524 5525 5527 5529 5530 5530 5531 5531 5531 5530 5529 5528 5526 5525 5522 5520 5517 5514 5511 5508 5505 5502 5498 5494 5490 5486 5482 5478 5474 5471 5467 5464 5460 5457 5454 5452 5449 5446 5444 5442 5439 5437 5435
5512 5513 5516 5518 5519 5519 5519 5520 5519 5519 5517 5516 5514 5512 5510 5507 5504 5501 5499 5496 5493 5490 5487 5483 5479 5475 5471 5468 5464 5461 5458 5455 5452 5449 5447 5445 5443 5442 5439 5437 5435 5434 5432
5500 5503 5505 5506 5507 5508 5508 5508 5507 5507 5506 5504 5502 5499 5497 5495 5491 5488 5485 5482 5479 5477 5474 5470 5467 5464 5460 5457 5453 5450 5447 5445 5443 5440 5438 5436 5434 5433 5432 5430 5428 5427 5426
5491 5493 5495 5496 5497 5497 5497 5496 5496 5495 5494 5492 5490 5487 5485 5481 5477 5475 5472 5469 5467 5464 5461 5457 5454 5451 5447 5445 5442 5440 5437 5433 5431 5429 5427 5425 5423 5422 5421 5420 5419 5418 5417
5482 5483 5485 5485 5486 5486 5486 5485 5484 5483 5482 5478 5476 5475 5471 5467 5465 5462 5459 5457 5454 5451 5447 5443 5440 5438 5435 5432 5429 5425 5422 5420 5417 5414 5412 5411 5410 5409 5408 5407 5407 5406 5405
5472 5473 5474 5475 5475 5474 5473 5472 5471 5470 5467 5464 5462 5459 5456 5454 5452 5448 5445 5442 5439 5436 5433 5429 5425 5422 5420 5417 5414 5411 5408 5405 5403 5401 5400 5398 5397 5396 5395 5394 5393 5393 5393
5461 5462 5462 5462 5462 5461 5461 5459 5457 5455 5452 5450 5447 5443 5441 5439 5437 5433 5430 5427 5423 5420 5417 5412 5409 5407 5404 5401 5398 5395 5393 5391 5389 5387 5385 5384 5383 5383 5382 5381 5380 5379 5379
5451 5451 5450 5449 5449 5448 5446 5444 5441 5439 5437 5435 5431 5428 5425 5423 5420 5416 5413 5410 5406 5403 5399 5395 5392 5390 5387 5385 5382 5379 5377 5374 5372 5369 5368 5367 5366 5365 5364 5363 5362 5362 5362
5439 5438 5437 5436 5435 5433 5431 5429 5426 5424 5421 5418 5415 5412 5409 5406 5402 5398 5395 5392 5388 5385 5382 5378 5375 5372 5370 5367 5365 5363 5360 5358 5356 5354 5353 5351 5350 5349 5347 5345 5343 5342 5342
5425 5424 5423 5422 5420 5418 5415 5413 5411 5408 5404 5401 5398 5395 5391 5388 5384 5380 5377 5374 5371 5367 5364 5360 5357 5355 5352 5350 5348 5346 5343 5341 5339 5337 5336 5334 5333 5332 5331 5330 5328 5327 5326
5411 5410 5408 5406 5404 5401 5399 5396 5393 5390 5387 5383 5380 5377 5374 5370 5367 5363 5359 5356 5352 5348 5345 5342 5339 5336 5333 5331 5328 5326 5324 5322 5320 5319 5317 5315 5313 5312 5311 5310 5309 5308 5307
5396 5394 5392 5390 5387 5384 5381 5378 5375 5372 5369 5365 5362 5358 5355 5352 5348 5344 5341 5337 5333 5330 5327 5323 5320 5317 5314 5311 5308 5306 5304 5302 5300 5298 5296 5294 5292 5291 5290 5288 5287 5286 5285
Wind_Speed
32 32 31 30 29 28 29 32 38 41 38 28 27 28 27 30 29 30 38 32 31 34 38 42 43 44 46 47 48 54 54 51 51 47 47 50 52 63 64 67 74 73 72
32 30 27 29 27 25 26 29 31 31 27 26 27 26 29 30 28 31 28 28 31 34 37 36 36 37 39 42 45 53 50 42 39 40 46 48 48 52 60 63 64 70 72
30 28 28 28 25 23 23 25 24 22 22 25 23 24 23 26 25 24 28 29 30 33 35 40 40 42 36 40 44 48 51 43 38 37 36 41 46 48 48 57 61 60 65
28 27 28 27 24 22 21 22 18 19 20 20 22 22 22 24 25 26 28 29 33 39 42 42 42 45 50 47 43 46 48 50 38 35 36 34 35 44 43 44 53 59 58
29 28 29 27 24 21 20 20 15 17 13 14 13 14 18 20 24 27 28 30 32 35 38 40 42 44 45 49 51 45 46 49 42 36 36 29 24 29 37 39 39 49 55
30 30 29 28 24 22 20 20 15 14 13 14 12 16 17 19 21 20 21 24 27 31 35 38 41 43 47 49 51 51 41 46 49 42 33 29 19 18 23 26 27 34 44
31 30 30 28 25 24 22 20 18 16 17 13 17 18 17 18 18 19 21 25 28 31 34 37 40 43 46 50 50 51 48 41 44 47 42 30 21 13 7 15 20 20 30
32 31 31 30 28 27 26 23 20 19 21 20 19 20 20 22 22 23 24 28 30 32 33 35 37 39 41 43 47 50 49 47 42 43 42 37 25 15 9 3 11 12 14
33 33 33 32 30 30 28 28 27 24 24 24 22 23 25 26 25 25 25 26 29 32 34 34 35 38 40 36 40 44 49 45 43 38 37 37 29 21 10 4 6 10 13
36 35 34 34 31 32 31 32 32 31 29 29 28 28 28 28 27 28 29 28 29 30 32 34 36 38 39 39 36 38 43 45 40 40 35 33 28 24 18 10 1 8 9
36 33 36 35 33 33 34 35 35 35 36 34 33 33 32 31 30 30 30 31 31 32 33 34 36 37 38 38 38 35 36 39 40 36 33 34 26 23 20 17 11 5 6
35 35 37 35 35 34 36 37 37 37 38 38 37 37 37 36 35 34 33 33 34 35 36 36 36 37 38 36 35 36 35 34 34 35 34 29 27 27 21 15 13 10 5
36 37 37 35 35 36 37 39 38 38 39 40 41 41 42 41 41 40 40 39 38 38 39 41 41 40 39 38 37 35 34 32 31 31 29 29 25 22 21 19 15 13 10
38 38 37 35 35 36 38 39 39 39 40 41 42 43 44 45 46 46 46 46 45 45 45 44 45 45 43 42 40 38 35 35 31 31 30 25 25 23 18 15 15 13 10
38 37 37 36 36 36 37 39 38 38 41 42 44 45 47 49 50 51 51 50 50 50 49 49 50 50 48 46 44 42 41 40 35 30 29 28 26 22 21 21 15 13 13
39 36 36 36 34 34 36 38 39 41 42 42 43 45 49 51 52 54 55 54 52 53 53 52 51 49 48 47 46 42 39 38 36 32 27 28 29 26 22 20 21 19 15
36 34 34 34 33 35 35 36 37 41 43 44 45 49 51 51 53 54 55 58 53 53 51 52 51 50 49 47 45 41 35 34 34 36 34 30 31 29 27 25 23 23 18
34 30 31 33 34 33 32 33 33 35 37 37 39 41 40 41 42 46 45 44 49 54 54 53 52 50 47 43 42 44 44 44 45 44 38 33 32 34 35 33 30 28 30
32 31 32 32 33 34 34 35 36 37 40 41 44 46 48 49 49 50 51 52 52 51 52 52 54 55 55 53 49 47 46 45 44 39 38 37 35 37 39 39 39 37 36
30 29 31 33 35 37 38 40 42 44 46 47 49 51 53 53 52 53 53 54 55 56 55 55 55 55 54 53 52 51 51 50 50 48 45 40 41 39 41 44 43 43 43
28 31 32 35 37 39 43 46 47 48 50 51 52 54 55 55 54 54 55 56 56 56 56 57 58 57 57 57 56 54 53 54 53 52 51 48 48 46 45 45 46 47 47
36 37 38 40 43 46 48 49 50 52 52 53 53 55 56 56 56 56 58 58 58 58 59 61 61 60 60 58 58 58 56 55 55 53 53 53 46 45 45 47 51 54 52
40 42 43 45 47 49 50 51 52 52 53 54 55 56 57 57 57 58 58 58 60 62 62 61 60 59 56 54 52 50 50 50 50 50 51 49 47 49 49 50 50 49 48
42 44 45 48 49 50 51 52 53 54 55 55 56 57 57 56 57 58 58 59 60 60 58 57 56 55 53 52 55 56 55 54 54 54 54 54 52 51 52 50 50 50 52
45 47 47 49 50 52 53 54 56 56 56 55 55 55 56 57 58 58 58 59 59 58 58 57 56 55 55 56 56 56 55 55 55 56 57 56 55 55 55 56 56 58 58
48 50 52 54 54 55 55 54 53 53 53 54 55 55 56 56 57 58 58 59 58 58 58 58 58 59 60 61 62 62 62 63 62 62 62 62 62 62 62 62 62 62 62
Wind_Direction
266 270 271 272 279 287 292 303 312 317 320 324 322 320 322 329 324 321 324 322 310 314 316 317 316 314 315 317 322 325 316 305 297 292 281 262 258 253 250 245 244 244 244
265 265 267 270 278 284 295 307 318 326 334 330 325 321 323 329 331 332 331 337 339 338 337 335 332 327 322 328 329 333 332 317 311 297 282 272 265 260 249 246 241 240 241
261 260 263 270 276 281 294 308 326 338 349 349 352 352 351 360 357 353 8 9 10 13 9 9 5 2 345 339 341 340 345 332 318 312 297 279 263 257 254 245 242 239 241
256 256 260 266 271 276 290 303 324 338 346 352 3 8 15 18 16 19 19 19 19 16 15 14 14 13 13 4 349 347 348 345 334 324 320 302 272 255 251 248 239 237 239
251 254 258 261 264 269 284 295 313 330 341 349 359 11 7 8 9 9 6 5 7 8 8 7 9 13 12 9 9 356 354 356 353 341 339 324 292 265 252 245 241 235 236
250 252 257 259 259 262 273 287 292 306 317 320 327 341 346 348 353 355 357 358 358 0 2 4 4 7 10 11 10 12 0 359 4 1 352 351 332 282 256 244 244 238 234
251 251 256 256 256 260 264 275 277 283 301 302 309 318 328 333 336 337 338 342 347 351 355 360 3 2 5 7 9 8 10 2 5 8 7 4 359 334 270 242 247 248 236
251 251 253 253 253 258 260 264 271 274 281 294 301 309 313 316 320 326 334 337 341 345 347 351 356 358 360 3 6 8 10 10 5 8 11 13 19 36 66 117 242 256 238
249 249 251 251 251 256 258 260 262 266 272 281 284 290 298 306 313 320 325 332 336 337 338 342 345 350 355 358 2 6 7 10 14 11 14 15 19 26 23 129 171 230 232
246 247 251 251 249 256 258 260 262 266 269 272 280 289 294 301 309 315 319 324 327 330 332 335 338 341 346 352 354 359 5 7 12 16 13 16 18 23 23 24 182 183 220
245 247 250 252 251 254 260 260 263 264 269 273 277 284 288 294 300 304 310 315 319 320 325 329 331 333 336 342 348 351 355 4 6 13 16 18 15 19 17 22 27 13 229
245 248 252 253 254 256 259 262 263 264 266 270 274 278 283 287 291 295 299 303 307 311 315 318 322 325 327 330 334 341 345 346 356 1 5 13 18 23 20 3 5 2 18
246 248 251 253 255 256 260 263 264 264 266 268 272 276 280 284 287 290 294 296 298 301 305 309 311 314 316 319 322 326 333 336 335 344 353 359 2 6 11 22 8 331 320
243 247 251 255 256 258 260 263 265 266 267 269 271 274 279 281 283 285 288 291 293 296 300 302 305 307 308 311 312 313 316 320 324 322 328 338 346 353 353 349 350 2 18
242 247 250 255 255 257 260 262 266 269 272 274 275 276 278 279 279 281 284 287 290 292 295 297 299 301 304 306 307 305 306 308 309 311 307 314 321 326 334 337 334 319 320
240 246 250 252 253 256 259 263 267 270 272 275 278 279 281 282 284 285 284 286 288 293 294 295 296 296 299 304 307 308 308 307 305 304 295 290 297 302 307 313 312 315 310
238 239 242 249 254 257 258 262 267 271 274 276 278 280 282 284 286 289 288 282 285 285 290 294 296 298 300 301 302 301 299 301 304 305 302 286 275 278 283 287 291 288 274
238 241 247 252 255 257 260 262 266 270 274 279 281 283 286 287 288 285 286 289 292 288 289 292 294 295 297 299 296 297 298 293 297 293 295 288 277 269 269 271 275 282 281
243 244 247 250 254 257 261 264 268 272 277 280 282 284 283 285 286 287 287 287 288 287 287 288 289 291 293 295 295 294 292 288 291 288 284 280 272 267 262 262 264 265 267
243 249 253 256 261 266 270 273 276 276 278 281 282 282 283 285 286 286 287 288 289 289 290 290 290 291 291 292 292 291 289 290 291 290 286 283 274 269 265 263 262 263 265
262 266 268 270 272 274 275 275 277 279 280 280 280 281 283 285 286 287 287 286 286 286 287 287 287 287 287 286 286 285 286 287 290 295 296 293 283 279 272 268 268 266 269
264 266 269 270 272 272 274 277 278 279 280 281 281 282 284 286 286 287 287 287 286 285 283 282 283 285 287 289 289 290 290 287 287 285 283 284 284 280 278 276 274 270 273
267 269 269 271 272 274 276 277 279 280 281 282 283 285 286 286 287 286 286 284 282 283 284 286 287 288 288 288 287 286 286 286 286 286 285 282 281 279 276 275 272 267 265
269 271 272 273 274 276 278 280 281 282 283 284 285 285 285 285 284 284 284 284 285 285 286 285 286 286 286 285 286 287 285 283 282 283 283 283 282 281 281 279 273 275 274
273 275 278 279 279 280 281 282 283 284 285 286 284 283 283 282 282 283 283 283 283 284 285 284 285 283 283 283 284 285 285 284 283 283 282 281 280 279 278 276 275 274 275
278 280 281 282 283 284 285 286 286 285 283 282 282 282 282 283 282 282 282 282 282 283 284 284 284 285 285 285 285 285 284 283 282 281 281 280 279 278 277 276 275 275 274